Miscellaneous Local Product
Issued by NWS North Platte, NE

Home | Current Version | Previous Version | Graphics & Text | Print | Product List | Glossary On
Versions: 1 2 3 4 5 6 7 8 9 10 11 12 13 14 15 16 17 18 19 20 21 22 23 24 25 26 27 28 29 30 31 32 33 34 35 36 37 38 39 40 41 42 43 44 45 46 47 48 49 50
000
AXUS43 KLBF 191210
MISLBF


WESTERN AND NORTH CENTRAL NEBRASKA HOURLY WEATHER ROUNDUP
NATIONAL WEATHER SERVICE NORTH PLATTE NE
700 AM CDT FRI SEP 19 2014

***STATIONS NOT REPORTING VARIABLES SUCH AS SKY/WEATHER OR
PRESSURE ARE PROVIDED BY THE NEBRASKA DEPARTMENT OF
ROADS...RAWS...AND APRS NETWORKS...AND ARE NOT UNDER
NATIONAL WEATHER SERVICE QUALITY CONTROL***

...OBSERVATIONS IN AND NEAR THE EASTERN PANHANDLE OF NEBRASKA...

CITY           SKY/WX    TMP DP  RH WIND       PRES   REMARKS
PINE RIDGE     PTCLDY    55  54  96 NE5       29.82F
CHADRON        PTCLDY    60  53  77 SW3       29.83S
ALLIANCE       PTCLDY    51  48  89 CALM      29.85R
SIDNEY         CLEAR     59  49  69 SW9       29.90R
WHITECLAY        N/A     55  53  94 CALM        N/A
RUSHVILLE        N/A     54  52  92 E6          N/A
CRESCENT LAKE    N/A     59  52  77 W6          N/A
LISCO            N/A     74  39  27 W13         N/A
BIG SPRINGS      N/A     55  53  93 CALM        N/A
$$

...OBSERVATIONS IN NORTH CENTRAL NEBRASKA...

CITY           SKY/WX    TMP DP  RH WIND       PRES   REMARKS
VALENTINE      CLEAR     59  58  96 S9        29.79R
THEDFORD       PTCLDY    61  60  97 S12       29.82F
AINSWORTH      PTCLDY    61  60  98 SW8G17    29.80R
O`NEILL        PTCLDY    65  64  95 S13G18    29.80S
ORD            PTCLDY    63  61  93 S9        29.83F
BROKEN BOW     CLEAR     63  60  90 S10       29.85S
SPRINGVIEW       N/A     61  59  92 W6          N/A
ROSE             N/A     65  65  99 SE12        N/A
NEWPORT          N/A     66  64  94 S12         N/A
COMSTOCK         N/A     66  65  97 S7          N/A
CHAMBERS         N/A     64  62  95 S7G17       N/A
$$

...OBSERVATIONS IN SOUTHWEST NEBRASKA AND FAR NORTHEAST COLORADO...

CITY           SKY/WX    TMP DP  RH WIND       PRES   REMARKS
WRAY           FAIR      56  56 100 SW6       29.91S
HOLYOKE        FAIR      61  55  82 SW7       29.89S
IMPERIAL       CLEAR     60  55  83 S7        29.88R
OGALLALA       CLEAR     52  52  99 CALM      29.87S
NORTH PLATTE   CLEAR     55  54  96 CALM      29.87R
MCCOOK         FOG       54  54 100 E3        29.89S VSB 1/2
LEXINGTON      CLEAR     60  59  96 E5        29.88S
PAXTON           N/A     50  49  95 CALM        N/A
SUTHERLAND       N/A     53  51  93 CALM        N/A
BRADY            N/A     58  56  94 CALM        N/A
GOTHENBURG       N/A     64  57  79 S5          N/A
CALLAWAY         N/A     60  59  98 S12         N/A
$$

...SOME WEATHER OBSERVATIONS FROM AROUND THE REGION...

CITY           SKY/WX    TMP DP  RH WIND       PRES   REMARKS
DENVER         PTCLDY    67  32  27 S15       29.96R
LARAMIE        CLEAR     49  35  58 E7        30.12R
CHEYENNE       PTCLDY    59  38  45 E7        30.02R
SCOTTSBLUFF    PTCLDY    60  51  72 W12       29.89R
RAPID CITY     MOCLDY    60  51  72 CALM      29.77S
PIERRE         CLOUDY    61  59  93 CALM      29.66F
WINNER         FAIR      65  62  90 S9        29.74F
SIOUX FALLS    DRIZZLE   63  60  90 S16       29.83F FOG
OMAHA          CLOUDY    63  60  90 S16       29.94S FOG
GRAND ISLAND   CLEAR     64  61  90 S12       29.89R
KANSAS CITY    CLOUDY    62  61  96 SE9       30.02R
WICHITA        PTCLDY    65  62  90 S6        29.97R
HAYS           CLEAR     63  55  77 S9        29.94R
LIBERAL        CLEAR     59  54  82 SW6       30.01R
GOODLAND       CLEAR     62  59  90 SW14      29.94S
$$



USA.gov is the U.S. government's official web portal to all federal, state and local government web resources and services.